QPF
0.01 0.01 0.01 0.01 0.01 0.01 0.01 0.01 0.02 0.02 0.03 0.04 0.04 0.05 0.06 0.08 0.08 0.08 0.05 0.03 0.04 0.04 0.04 0.04 0.05 0.05 0.04 0.04 0.04 0.03 0.02 0.02 0.03 0.02 0.02 0.03 0.06 0.07 0.05 0.03 0.02 0.01 0.01
0.01 0.01 0.01 0.01 0.01 0.01 0.01 0.01 0.01 0.02 0.03 0.03 0.02 0.02 0.03 0.04 0.04 0.04 0.03 0.04 0.04 0.04 0.04 0.04 0.04 0.04 0.05 0.04 0.03 0.03 0.02 0.03 0.03 0.02 0.02 0.03 0.05 0.06 0.07 0.06 0.03 0.01 0.01
0.00 0.01 0.01 0.01 0.01 0.01 0.01 0.01 0.01 0.02 0.02 0.02 0.03 0.02 0.03 0.03 0.03 0.03 0.04 0.04 0.04 0.04 0.04 0.04 0.04 0.05 0.04 0.03 0.02 0.02 0.02 0.03 0.04 0.04 0.03 0.03 0.03 0.04 0.04 0.04 0.04 0.03 0.01
0.01 0.01 0.02 0.01 0.01 0.01 0.01 0.01 0.02 0.03 0.03 0.03 0.02 0.02 0.03 0.04 0.04 0.04 0.04 0.04 0.04 0.04 0.03 0.03 0.03 0.04 0.04 0.04 0.03 0.03 0.03 0.03 0.04 0.04 0.03 0.03 0.03 0.03 0.03 0.02 0.02 0.02 0.01
0.02 0.02 0.02 0.02 0.02 0.01 0.01 0.01 0.02 0.03 0.04 0.03 0.03 0.02 0.03 0.03 0.03 0.04 0.04 0.05 0.05 0.04 0.04 0.03 0.03 0.04 0.03 0.04 0.03 0.04 0.04 0.04 0.03 0.03 0.03 0.03 0.03 0.03 0.03 0.02 0.02 0.02 0.02
0.02 0.02 0.02 0.02 0.02 0.01 0.01 0.01 0.02 0.03 0.04 0.03 0.03 0.03 0.03 0.02 0.03 0.04 0.05 0.06 0.06 0.06 0.06 0.07 0.06 0.05 0.05 0.04 0.04 0.05 0.04 0.04 0.03 0.03 0.03 0.02 0.02 0.03 0.03 0.02 0.02 0.03 0.02
0.02 0.01 0.02 0.02 0.02 0.02 0.02 0.02 0.02 0.03 0.03 0.03 0.03 0.03 0.03 0.03 0.03 0.03 0.03 0.05 0.06 0.07 0.07 0.07 0.06 0.06 0.06 0.05 0.04 0.03 0.03 0.03 0.03 0.03 0.03 0.03 0.03 0.03 0.03 0.02 0.02 0.02 0.02
0.01 0.01 0.01 0.01 0.02 0.02 0.02 0.03 0.04 0.03 0.03 0.04 0.04 0.04 0.03 0.03 0.03 0.02 0.02 0.02 0.04 0.04 0.04 0.04 0.05 0.05 0.05 0.04 0.04 0.04 0.03 0.03 0.03 0.03 0.03 0.03 0.03 0.04 0.04 0.03 0.03 0.02 0.02
0.01 0.01 0.02 0.02 0.03 0.03 0.03 0.04 0.05 0.04 0.04 0.04 0.04 0.03 0.03 0.03 0.02 0.01 0.01 0.02 0.02 0.03 0.02 0.03 0.03 0.03 0.03 0.03 0.02 0.03 0.03 0.03 0.03 0.02 0.02 0.02 0.02 0.02 0.03 0.04 0.03 0.03 0.02
0.00 0.01 0.02 0.04 0.05 0.06 0.07 0.07 0.06 0.04 0.04 0.03 0.03 0.02 0.02 0.02 0.02 0.01 0.01 0.02 0.02 0.02 0.02 0.02 0.02 0.02 0.03 0.03 0.02 0.02 0.02 0.03 0.03 0.03 0.02 0.02 0.02 0.02 0.02 0.02 0.03 0.03 0.02
0.00 0.01 0.01 0.03 0.03 0.05 0.07 0.06 0.05 0.05 0.04 0.03 0.02 0.01 0.01 0.02 0.02 0.01 0.01 0.01 0.02 0.02 0.01 0.01 0.01 0.01 0.01 0.01 0.02 0.02 0.02 0.02 0.03 0.03 0.02 0.02 0.03 0.03 0.03 0.02 0.02 0.03 0.04
0.01 0.01 0.01 0.01 0.01 0.02 0.04 0.04 0.04 0.04 0.03 0.02 0.01 0.01 0.01 0.02 0.02 0.01 0.01 0.01 0.02 0.02 0.01 0.01 0.01 0.01 0.00 0.01 0.01 0.01 0.02 0.01 0.01 0.01 0.02 0.02 0.03 0.02 0.02 0.02 0.03 0.04 0.04
0.01 0.01 0.01 0.01 0.01 0.01 0.02 0.02 0.02 0.02 0.01 0.01 0.01 0.01 0.01 0.01 0.01 0.01 0.01 0.01 0.01 0.01 0.01 0.01 0.01 0.01 0.00 0.00 0.00 0.01 0.01 0.02 0.01 0.01 0.02 0.02 0.03 0.03 0.03 0.04 0.04 0.05 0.05
0.01 0.01 0.01 0.02 0.02 0.02 0.03 0.03 0.03 0.03 0.02 0.01 0.02 0.01 0.01 0.01 0.01 0.01 0.01 0.01 0.01 0.01 0.01 0.01 0.01 0.01 0.01 0.01 0.01 0.01 0.01 0.02 0.02 0.02 0.03 0.04 0.05 0.05 0.06 0.06 0.06 0.05 0.05
0.01 0.01 0.02 0.03 0.04 0.04 0.03 0.03 0.03 0.02 0.02 0.02 0.01 0.01 0.01 0.01 0.01 0.02 0.02 0.02 0.01 0.01 0.01 0.01 0.01 0.01 0.01 0.02 0.02 0.01 0.01 0.01 0.01 0.02 0.03 0.04 0.05 0.05 0.06 0.07 0.08 0.07 0.07
0.01 0.01 0.02 0.03 0.04 0.03 0.03 0.03 0.02 0.01 0.01 0.01 0.01 0.01 0.01 0.01 0.02 0.02 0.02 0.02 0.02 0.02 0.01 0.01 0.02 0.02 0.02 0.02 0.02 0.02 0.02 0.02 0.02 0.02 0.03 0.04 0.05 0.06 0.07 0.08 0.09 0.10 0.11
0.02 0.02 0.02 0.02 0.02 0.02 0.02 0.02 0.01 0.01 0.01 0.00 0.00 0.00 0.01 0.01 0.00 0.01 0.01 0.02 0.02 0.02 0.01 0.01 0.02 0.02 0.02 0.03 0.03 0.03 0.03 0.03 0.03 0.03 0.02 0.02 0.03 0.04 0.05 0.06 0.08 0.09 0.10
0.03 0.02 0.02 0.03 0.03 0.03 0.02 0.02 0.01 0.01 0.01 0.00 0.00 0.00 0.01 0.01 0.00 0.01 0.01 0.01 0.01 0.01 0.01 0.01 0.02 0.02 0.02 0.02 0.02 0.02 0.03 0.03 0.03 0.03 0.02 0.02 0.02 0.03 0.03 0.04 0.06 0.08 0.09
0.02 0.02 0.02 0.03 0.03 0.04 0.03 0.02 0.02 0.01 0.01 0.01 0.01 0.01 0.01 0.01 0.01 0.01 0.01 0.01 0.01 0.01 0.01 0.02 0.02 0.02 0.02 0.01 0.01 0.02 0.02 0.03 0.03 0.03 0.02 0.03 0.03 0.03 0.03 0.03 0.03 0.05 0.07
0.06 0.05 0.04 0.04 0.04 0.04 0.04 0.04 0.03 0.02 0.02 0.02 0.01 0.01 0.01 0.01 0.01 0.01 0.01 0.01 0.01 0.01 0.01 0.02 0.02 0.02 0.01 0.01 0.02 0.02 0.02 0.03 0.03 0.03 0.03 0.03 0.02 0.02 0.02 0.02 0.02 0.03 0.04
0.03 0.04 0.04 0.03 0.03 0.03 0.03 0.03 0.02 0.02 0.02 0.01 0.01 0.01 0.01 0.01 0.01 0.01 0.01 0.02 0.02 0.01 0.02 0.02 0.02 0.02 0.02 0.02 0.02 0.02 0.02 0.03 0.02 0.02 0.02 0.03 0.02 0.02 0.01 0.02 0.03 0.03 0.04
0.00 0.01 0.01 0.01 0.01 0.01 0.01 0.01 0.01 0.01 0.01 0.01 0.01 0.01 0.01 0.01 0.01 0.02 0.02 0.02 0.02 0.02 0.02 0.01 0.01 0.01 0.01 0.01 0.01 0.01 0.02 0.02 0.03 0.04 0.03 0.03 0.03 0.04 0.03 0.03 0.03 0.04 0.04
0.01 0.01 0.01 0.01 0.01 0.00 0.00 0.00 0.00 0.01 0.01 0.01 0.01 0.01 0.01 0.01 0.02 0.03 0.03 0.03 0.02 0.02 0.01 0.01 0.01 0.01 0.01 0.02 0.02 0.02 0.03 0.03 0.04 0.04 0.04 0.04 0.04 0.04 0.04 0.03 0.03 0.03 0.03
0.02 0.02 0.01 0.01 0.01 0.01 0.01 0.01 0.01 0.01 0.01 0.01 0.01 0.01 0.02 0.01 0.02 0.02 0.02 0.02 0.02 0.02 0.02 0.02 0.02 0.02 0.03 0.03 0.03 0.04 0.04 0.04 0.03 0.03 0.03 0.04 0.04 0.03 0.02 0.03 0.03 0.03 0.04
0.02 0.02 0.01 0.01 0.01 0.01 0.01 0.01 0.01 0.02 0.02 0.02 0.01 0.02 0.02 0.02 0.02 0.01 0.01 0.01 0.01 0.02 0.02 0.02 0.02 0.03 0.04 0.04 0.03 0.03 0.04 0.04 0.04 0.04 0.04 0.05 0.04 0.04 0.04 0.04 0.03 0.04 0.04
0.01 0.01 0.01 0.01 0.01 0.01 0.01 0.01 0.02 0.02 0.02 0.02 0.02 0.02 0.02 0.02 0.02 0.01 0.01 0.01 0.01 0.02 0.02 0.02 0.03 0.03 0.03 0.03 0.02 0.02 0.03 0.03 0.03 0.04 0.05 0.05 0.05 0.05 0.05 0.05 0.04 0.04 0.05
MSLP
1012.52 1012.55 1012.57 1012.55 1012.47 1012.32 1012.11 1011.87 1011.61 1011.36 1011.15 1010.98 1010.86 1010.79 1010.75 1010.72 1010.69 1010.64 1010.57 1010.47 1010.34 1010.19 1010.02 1009.83 1009.62 1009.40 1009.18 1008.95 1008.75 1008.58 1008.47 1008.43 1008.48 1008.62 1008.85 1009.16 1009.51 1009.89 1010.27 1010.62 1010.93 1011.20 1011.42
1012.18 1012.21 1012.22 1012.21 1012.14 1012.02 1011.85 1011.64 1011.41 1011.19 1010.98 1010.81 1010.68 1010.59 1010.54 1010.51 1010.48 1010.46 1010.43 1010.38 1010.31 1010.22 1010.09 1009.93 1009.75 1009.53 1009.28 1009.03 1008.78 1008.58 1008.44 1008.38 1008.42 1008.57 1008.81 1009.12 1009.48 1009.86 1010.22 1010.53 1010.80 1011.00 1011.15
1011.93 1011.93 1011.92 1011.88 1011.81 1011.69 1011.53 1011.33 1011.11 1010.89 1010.68 1010.49 1010.34 1010.22 1010.13 1010.07 1010.03 1010.01 1010.00 1009.99 1009.97 1009.94 1009.89 1009.79 1009.67 1009.50 1009.30 1009.08 1008.87 1008.69 1008.56 1008.52 1008.57 1008.72 1008.97 1009.27 1009.61 1009.95 1010.26 1010.51 1010.70 1010.82 1010.88
1011.84 1011.79 1011.74 1011.66 1011.55 1011.39 1011.21 1010.99 1010.77 1010.53 1010.30 1010.08 1009.89 1009.73 1009.59 1009.48 1009.41 1009.36 1009.34 1009.35 1009.38 1009.41 1009.43 1009.44 1009.41 1009.35 1009.24 1009.11 1008.98 1008.87 1008.79 1008.79 1008.87 1009.03 1009.25 1009.53 1009.83 1010.11 1010.34 1010.51 1010.61 1010.64 1010.61
1011.91 1011.83 1011.72 1011.58 1011.40 1011.19 1010.95 1010.70 1010.43 1010.15 1009.89 1009.63 1009.39 1009.17 1008.97 1008.80 1008.67 1008.58 1008.55 1008.55 1008.61 1008.70 1008.81 1008.91 1009.00 1009.06 1009.09 1009.08 1009.06 1009.04 1009.04 1009.09 1009.19 1009.35 1009.55 1009.79 1010.03 1010.23 1010.39 1010.47 1010.49 1010.44 1010.35
1012.13 1012.01 1011.83 1011.62 1011.37 1011.09 1010.78 1010.46 1010.13 1009.81 1009.49 1009.19 1008.89 1008.60 1008.34 1008.11 1007.91 1007.77 1007.70 1007.69 1007.76 1007.89 1008.06 1008.25 1008.45 1008.64 1008.79 1008.91 1009.01 1009.09 1009.17 1009.27 1009.39 1009.55 1009.73 1009.92 1010.10 1010.25 1010.33 1010.36 1010.31 1010.21 1010.07
1012.41 1012.25 1012.03 1011.75 1011.42 1011.05 1010.66 1010.27 1009.88 1009.51 1009.14 1008.78 1008.43 1008.09 1007.77 1007.47 1007.22 1007.02 1006.89 1006.85 1006.90 1007.04 1007.25 1007.51 1007.79 1008.07 1008.33 1008.57 1008.77 1008.93 1009.08 1009.23 1009.37 1009.53 1009.69 1009.85 1009.99 1010.09 1010.15 1010.14 1010.07 1009.95 1009.81
1012.69 1012.51 1012.24 1011.89 1011.49 1011.04 1010.58 1010.12 1009.67 1009.25 1008.84 1008.45 1008.07 1007.69 1007.32 1006.97 1006.65 1006.39 1006.20 1006.11 1006.12 1006.23 1006.44 1006.71 1007.04 1007.38 1007.71 1008.02 1008.29 1008.52 1008.73 1008.91 1009.07 1009.23 1009.39 1009.54 1009.67 1009.77 1009.82 1009.82 1009.77 1009.67 1009.55
1012.91 1012.71 1012.40 1012.00 1011.53 1011.02 1010.50 1009.99 1009.50 1009.05 1008.62 1008.21 1007.81 1007.42 1007.02 1006.63 1006.27 1005.95 1005.70 1005.53 1005.48 1005.54 1005.70 1005.95 1006.26 1006.61 1006.96 1007.30 1007.61 1007.88 1008.11 1008.32 1008.51 1008.69 1008.87 1009.03 1009.18 1009.30 1009.39 1009.43 1009.43 1009.39 1009.31
1013.06 1012.84 1012.50 1012.05 1011.54 1010.98 1010.42 1009.88 1009.38 1008.92 1008.50 1008.10 1007.71 1007.33 1006.93 1006.52 1006.12 1005.75 1005.43 1005.19 1005.05 1005.02 1005.10 1005.27 1005.53 1005.83 1006.16 1006.49 1006.80 1007.08 1007.33 1007.57 1007.78 1007.98 1008.19 1008.39 1008.58 1008.75 1008.90 1009.01 1009.08 1009.10 1009.09
1013.16 1012.91 1012.54 1012.07 1011.52 1010.94 1010.37 1009.83 1009.33 1008.90 1008.51 1008.15 1007.79 1007.43 1007.05 1006.64 1006.22 1005.80 1005.42 1005.09 1004.86 1004.72 1004.69 1004.76 1004.92 1005.14 1005.41 1005.69 1005.97 1006.24 1006.49 1006.73 1006.97 1007.21 1007.45 1007.69 1007.93 1008.17 1008.39 1008.57 1008.71 1008.81 1008.85
1013.24 1012.96 1012.57 1012.07 1011.51 1010.93 1010.37 1009.85 1009.39 1009.00 1008.66 1008.35 1008.06 1007.74 1007.39 1006.99 1006.56 1006.11 1005.67 1005.26 1004.92 1004.67 1004.51 1004.45 1004.49 1004.61 1004.78 1004.99 1005.22 1005.45 1005.69 1005.94 1006.18 1006.45 1006.72 1007.00 1007.29 1007.59 1007.86 1008.11 1008.31 1008.46 1008.55
1013.33 1013.02 1012.61 1012.10 1011.55 1010.98 1010.45 1009.97 1009.57 1009.24 1008.96 1008.72 1008.49 1008.22 1007.91 1007.54 1007.11 1006.63 1006.14 1005.65 1005.21 1004.84 1004.55 1004.37 1004.27 1004.27 1004.33 1004.45 1004.61 1004.80 1005.01 1005.24 1005.49 1005.75 1006.04 1006.35 1006.67 1006.99 1007.31 1007.59 1007.83 1008.01 1008.14
1013.45 1013.12 1012.68 1012.18 1011.64 1011.11 1010.61 1010.19 1009.85 1009.59 1009.38 1009.21 1009.03 1008.82 1008.55 1008.20 1007.77 1007.27 1006.73 1006.18 1005.65 1005.18 1004.77 1004.46 1004.24 1004.11 1004.07 1004.10 1004.19 1004.31 1004.48 1004.67 1004.90 1005.15 1005.43 1005.74 1006.06 1006.38 1006.70 1006.99 1007.24 1007.45 1007.59
1013.60 1013.24 1012.79 1012.29 1011.78 1011.28 1010.85 1010.48 1010.21 1010.01 1009.86 1009.75 1009.62 1009.45 1009.20 1008.87 1008.43 1007.92 1007.35 1006.75 1006.15 1005.58 1005.08 1004.67 1004.34 1004.11 1003.97 1003.91 1003.92 1003.98 1004.09 1004.24 1004.42 1004.64 1004.89 1005.16 1005.45 1005.75 1006.04 1006.31 1006.55 1006.76 1006.91
1013.73 1013.35 1012.91 1012.42 1011.94 1011.49 1011.11 1010.80 1010.58 1010.43 1010.33 1010.25 1010.16 1010.01 1009.77 1009.44 1009.01 1008.48 1007.88 1007.24 1006.59 1005.97 1005.41 1004.91 1004.51 1004.20 1003.98 1003.85 1003.79 1003.78 1003.83 1003.93 1004.05 1004.22 1004.41 1004.63 1004.86 1005.11 1005.35 1005.59 1005.80 1005.99 1006.15
1013.84 1013.44 1013.00 1012.53 1012.09 1011.69 1011.35 1011.10 1010.93 1010.81 1010.75 1010.68 1010.59 1010.44 1010.19 1009.85 1009.41 1008.87 1008.25 1007.59 1006.93 1006.27 1005.67 1005.13 1004.69 1004.33 1004.05 1003.87 1003.75 1003.70 1003.69 1003.73 1003.80 1003.90 1004.03 1004.18 1004.35 1004.52 1004.71 1004.89 1005.07 1005.24 1005.39
1013.88 1013.48 1013.05 1012.62 1012.21 1011.86 1011.57 1011.37 1011.22 1011.13 1011.07 1011.00 1010.89 1010.72 1010.45 1010.09 1009.63 1009.08 1008.46 1007.79 1007.12 1006.47 1005.86 1005.31 1004.85 1004.47 1004.18 1003.96 1003.81 1003.72 1003.67 1003.66 1003.67 1003.72 1003.78 1003.86 1003.96 1004.07 1004.20 1004.33 1004.47 1004.62 1004.76
1013.88 1013.49 1013.08 1012.68 1012.32 1012.01 1011.77 1011.60 1011.47 1011.39 1011.31 1011.22 1011.08 1010.87 1010.58 1010.19 1009.71 1009.14 1008.52 1007.87 1007.21 1006.58 1005.99 1005.47 1005.02 1004.65 1004.36 1004.14 1003.97 1003.86 1003.78 1003.73 1003.71 1003.70 1003.71 1003.73 1003.77 1003.83 1003.90 1003.99 1004.09 1004.20 1004.33
1013.87 1013.49 1013.11 1012.75 1012.44 1012.18 1011.97 1011.83 1011.71 1011.62 1011.53 1011.40 1011.22 1010.97 1010.63 1010.21 1009.71 1009.14 1008.53 1007.90 1007.27 1006.68 1006.13 1005.64 1005.23 1004.89 1004.61 1004.39 1004.23 1004.11 1004.02 1003.95 1003.90 1003.86 1003.83 1003.81 1003.81 1003.82 1003.85 1003.89 1003.96 1004.04 1004.15
1013.89 1013.53 1013.19 1012.87 1012.60 1012.38 1012.21 1012.08 1011.97 1011.87 1011.75 1011.58 1011.36 1011.06 1010.69 1010.24 1009.72 1009.15 1008.55 1007.95 1007.36 1006.81 1006.30 1005.86 1005.48 1005.17 1004.91 1004.72 1004.57 1004.45 1004.35 1004.27 1004.20 1004.15 1004.09 1004.05 1004.03 1004.01 1004.01 1004.02 1004.05 1004.10 1004.17
1014.00 1013.67 1013.35 1013.07 1012.83 1012.65 1012.50 1012.38 1012.27 1012.15 1012.00 1011.80 1011.54 1011.20 1010.79 1010.32 1009.79 1009.23 1008.65 1008.07 1007.51 1006.99 1006.53 1006.12 1005.77 1005.48 1005.25 1005.06 1004.91 1004.79 1004.69 1004.60 1004.53 1004.46 1004.41 1004.35 1004.32 1004.29 1004.27 1004.27 1004.27 1004.29 1004.32
1014.22 1013.90 1013.61 1013.35 1013.14 1012.97 1012.83 1012.72 1012.59 1012.46 1012.28 1012.05 1011.75 1011.38 1010.95 1010.46 1009.93 1009.37 1008.80 1008.24 1007.71 1007.21 1006.77 1006.37 1006.03 1005.75 1005.51 1005.31 1005.15 1005.01 1004.90 1004.81 1004.73 1004.66 1004.60 1004.55 1004.52 1004.49 1004.47 1004.46 1004.45 1004.44 1004.44
1014.53 1014.22 1013.94 1013.69 1013.49 1013.32 1013.18 1013.05 1012.91 1012.75 1012.54 1012.28 1011.95 1011.56 1011.11 1010.62 1010.08 1009.52 1008.96 1008.41 1007.88 1007.39 1006.93 1006.53 1006.17 1005.86 1005.59 1005.36 1005.16 1004.99 1004.85 1004.74 1004.65 1004.57 1004.51 1004.48 1004.45 1004.44 1004.43 1004.43 1004.42 1004.41 1004.39
1014.91 1014.59 1014.30 1014.04 1013.83 1013.64 1013.48 1013.32 1013.15 1012.96 1012.72 1012.43 1012.08 1011.67 1011.21 1010.71 1010.17 1009.60 1009.04 1008.48 1007.94 1007.43 1006.95 1006.50 1006.09 1005.72 1005.39 1005.10 1004.84 1004.62 1004.43 1004.28 1004.16 1004.08 1004.03 1004.00 1003.99 1004.01 1004.02 1004.05 1004.07 1004.08 1004.07
1015.29 1014.96 1014.65 1014.36 1014.11 1013.89 1013.69 1013.49 1013.28 1013.05 1012.78 1012.46 1012.08 1011.66 1011.18 1010.66 1010.11 1009.54 1008.96 1008.38 1007.81 1007.25 1006.72 1006.21 1005.73 1005.28 1004.87 1004.49 1004.15 1003.85 1003.60 1003.40 1003.25 1003.15 1003.09 1003.07 1003.09 1003.14 1003.20 1003.27 1003.33 1003.39 1003.43
Thickness
5761 5757 5753 5749 5747 5744 5741 5739 5737 5735 5733 5730 5728 5726 5724 5723 5722 5720 5720 5718 5717 5716 5715 5713 5711 5711 5711 5711 5710 5709 5708 5707 5704 5707 5710 5710 5706 5705 5706 5706 5708 5707 5709
5757 5753 5749 5746 5743 5740 5737 5734 5731 5729 5727 5725 5723 5721 5719 5717 5716 5714 5713 5712 5711 5710 5708 5707 5706 5706 5703 5702 5701 5701 5701 5700 5698 5696 5699 5701 5699 5699 5698 5698 5702 5704 5704
5755 5750 5746 5742 5738 5734 5731 5729 5726 5723 5721 5718 5716 5714 5712 5711 5710 5709 5707 5706 5705 5704 5703 5701 5699 5698 5696 5696 5694 5694 5694 5695 5693 5691 5692 5693 5693 5693 5691 5692 5695 5694 5697
5751 5746 5741 5738 5734 5730 5727 5724 5721 5718 5715 5712 5709 5707 5706 5705 5704 5702 5702 5700 5699 5698 5697 5695 5693 5691 5689 5688 5688 5686 5686 5685 5685 5684 5685 5686 5685 5685 5683 5684 5687 5689 5690
5746 5742 5737 5733 5730 5726 5723 5719 5716 5712 5710 5706 5703 5701 5700 5700 5699 5696 5695 5695 5693 5692 5690 5689 5687 5684 5682 5680 5681 5680 5678 5677 5678 5677 5677 5677 5677 5675 5676 5678 5678 5680 5683
5739 5735 5731 5727 5724 5721 5718 5714 5710 5706 5703 5700 5697 5696 5695 5695 5691 5688 5687 5688 5687 5685 5683 5682 5681 5679 5676 5673 5670 5669 5668 5668 5669 5668 5669 5668 5667 5668 5668 5669 5670 5671 5672
5733 5729 5725 5721 5718 5715 5713 5709 5705 5700 5697 5694 5692 5690 5688 5685 5682 5680 5679 5679 5680 5678 5676 5675 5676 5675 5671 5669 5666 5663 5661 5659 5657 5659 5660 5660 5661 5662 5660 5661 5661 5662 5664
5727 5723 5719 5716 5712 5709 5706 5702 5698 5695 5691 5689 5685 5683 5681 5678 5675 5672 5671 5672 5673 5671 5670 5668 5666 5665 5664 5660 5660 5660 5658 5658 5655 5653 5653 5654 5654 5654 5653 5654 5654 5655 5658
5720 5716 5713 5710 5706 5702 5699 5695 5692 5688 5685 5683 5680 5677 5675 5672 5668 5665 5663 5666 5666 5665 5663 5661 5659 5656 5652 5649 5650 5651 5651 5651 5650 5648 5646 5645 5644 5644 5644 5646 5648 5649 5651
5713 5710 5706 5703 5699 5695 5692 5689 5685 5682 5679 5678 5675 5672 5669 5666 5661 5658 5655 5661 5660 5659 5657 5655 5650 5647 5643 5641 5642 5643 5642 5643 5644 5643 5641 5640 5640 5640 5638 5637 5640 5642 5644
5707 5703 5699 5696 5692 5689 5685 5681 5678 5676 5673 5671 5668 5666 5663 5660 5656 5652 5649 5651 5651 5650 5650 5650 5646 5639 5635 5633 5632 5635 5634 5633 5636 5636 5637 5637 5636 5636 5636 5635 5634 5634 5636
5700 5696 5692 5689 5687 5684 5678 5675 5672 5669 5667 5664 5662 5660 5659 5655 5651 5647 5643 5640 5639 5640 5641 5641 5638 5632 5629 5627 5627 5626 5625 5625 5630 5631 5632 5631 5630 5630 5630 5630 5628 5628 5628
5692 5688 5685 5682 5679 5676 5672 5668 5666 5664 5663 5661 5658 5656 5654 5651 5647 5641 5637 5634 5631 5631 5632 5629 5626 5624 5622 5623 5622 5620 5620 5623 5624 5624 5624 5624 5624 5623 5623 5622 5621 5621 5622
5685 5681 5678 5675 5672 5669 5665 5664 5661 5659 5657 5655 5652 5649 5647 5645 5641 5637 5634 5630 5625 5625 5625 5623 5619 5618 5617 5617 5618 5618 5619 5618 5618 5617 5617 5617 5616 5616 5615 5615 5614 5615 5616
5679 5676 5673 5670 5667 5662 5659 5656 5654 5650 5648 5644 5644 5642 5639 5636 5630 5622 5621 5622 5621 5620 5616 5618 5619 5618 5617 5617 5616 5615 5614 5613 5611 5610 5609 5608 5608 5607 5606 5606 5605 5607 5608
5673 5670 5668 5665 5661 5658 5654 5651 5645 5642 5637 5633 5630 5628 5628 5623 5618 5615 5612 5609 5607 5605 5608 5613 5613 5612 5612 5611 5610 5609 5608 5606 5604 5603 5602 5601 5600 5599 5599 5599 5599 5599 5600
5667 5664 5662 5659 5656 5652 5650 5647 5643 5636 5631 5627 5624 5621 5617 5614 5611 5608 5606 5603 5602 5599 5604 5607 5606 5606 5605 5604 5603 5602 5601 5599 5597 5596 5595 5594 5593 5593 5592 5592 5592 5592 5593
5662 5658 5655 5653 5650 5648 5645 5643 5640 5636 5632 5629 5622 5616 5612 5609 5606 5603 5601 5599 5604 5602 5603 5603 5601 5600 5599 5597 5596 5595 5594 5593 5591 5590 5589 5587 5586 5586 5586 5585 5585 5584 5586
5656 5653 5650 5648 5645 5643 5641 5638 5636 5632 5629 5626 5622 5616 5609 5606 5603 5600 5598 5601 5604 5603 5601 5599 5597 5594 5593 5591 5589 5587 5586 5585 5584 5583 5583 5581 5580 5580 5579 5579 5579 5576 5577
5650 5645 5642 5642 5641 5638 5635 5633 5630 5626 5623 5620 5617 5614 5608 5606 5605 5602 5599 5599 5598 5597 5595 5593 5591 5589 5586 5584 5582 5580 5580 5579 5579 5578 5578 5576 5575 5574 5572 5571 5571 5572 5571
5646 5643 5636 5637 5636 5633 5629 5626 5623 5620 5617 5614 5612 5608 5600 5602 5601 5598 5597 5594 5593 5591 5588 5586 5585 5583 5580 5578 5576 5575 5573 5573 5572 5572 5572 5570 5569 5568 5566 5566 5565 5565 5565
5642 5639 5635 5633 5630 5627 5623 5621 5618 5615 5612 5610 5608 5604 5596 5597 5597 5594 5592 5590 5588 5585 5583 5580 5578 5576 5574 5572 5569 5568 5567 5566 5565 5564 5563 5563 5562 5561 5561 5560 5559 5559 5558
5636 5633 5630 5627 5624 5619 5618 5617 5614 5611 5608 5605 5603 5600 5596 5594 5591 5588 5586 5584 5581 5580 5577 5574 5571 5570 5568 5565 5563 5561 5559 5558 5557 5556 5554 5554 5555 5555 5555 5555 5554 5554 5554
5631 5628 5625 5622 5619 5617 5614 5611 5609 5606 5603 5601 5599 5596 5593 5589 5586 5584 5581 5579 5576 5574 5571 5568 5565 5562 5559 5558 5556 5554 5551 5549 5547 5548 5547 5546 5547 5548 5548 5548 5549 5550 5550
5627 5625 5622 5619 5616 5613 5610 5607 5605 5602 5599 5597 5595 5592 5589 5585 5582 5579 5576 5573 5570 5568 5565 5562 5559 5556 5553 5550 5548 5545 5542 5540 5539 5538 5539 5541 5541 5541 5542 5542 5543 5543 5545
5623 5621 5618 5615 5612 5608 5605 5603 5601 5598 5595 5592 5590 5587 5584 5580 5577 5574 5571 5568 5565 5562 5559 5557 5553 5550 5547 5544 5541 5537 5534 5533 5532 5532 5532 5535 5536 5537 5537 5538 5538 5539 5540